Weather History for KPDT - September, 2013

Change the Weather History Date:

Sunday, September 15, 2013

  Actual Average Record
Temperature  
Mean Temperature 81 °F 64 °F  
Max Temperature 99 °F 78 °F 99 °F (2013)
Min Temperature 62 °F 50 °F 32 °F (1921)
Degree Days  
Heating Degree Days 0 3  
Month to date heating degree days 2 31  
Since 1 July heating degree days 2 53  
Cooling Degree Days 16 2  
Month to date cooling degree days 119 45  
Year to date cooling degree days 829 615  
Growing Degree Days 32 (Base 50)    
Moisture  
Dew Point 56 °F    
Average Humidity 48    
Maximum Humidity 78    
Minimum Humidity 18    
Precipitation  
Precipitation 0.06 in 0.02 in 0.48 in (1959)
Month to date precipitation 1.13 0.25  
Year to date precipitation 6.42 8.34  
Snow  
Snow 0.00 in 0.00 in 0.00 in (2002)
Month to date snowfall 0.0 0.0  
Year to date snowfall 0.2 7.7  
Since 1 July snowfall T 0.0  
Snow Depth 0.00 in    
Sea Level Pressure  
Sea Level Pressure 29.63 in    
Wind  
Wind Speed 12 mph (SSE)    
Max Wind Speed 54 mph    
Max Gust Speed 70 mph    
Visibility 9 miles    
Events Rain , Thunderstorm    
T = Trace of Precipitation, MM = Missing Value Source: NWS Daily Summary

Daily Weather History Graph

Daily Weather History Graph

Search for Another Location

Airport or City:

Trip Planner

Search our weather history database for the weather conditions in past years. The results will help you decide how hot, cold, wet, or windy it might be!

Date:

Astronomy

Sep. 15, 2013 Rise Set
Actual Time 6:34 AM PDT 7:05 PM PDT
Civil Twilight 6:04 AM PDT 7:35 PM PDT
Nautical Twilight 5:28 AM PDT 8:10 PM PDT
Astronomical Twilight 4:52 AM PDT 8:47 PM PDT
Moon 4:45 PM PDT (9/15) 2:07 AM PDT (9/15)
Length of Visible Light 13h 31m
Length of Day
12h 31m
Waxing Gibbous, 83% of the Moon is Illuminated
Sep 15
Waxing Gibbous
Sep 19
Full
Sep 26
Last Quarter
Oct 4
New
Oct 11
First Quarter

Hourly Weather History & Observations

Time (PDT) Temp. Heat Index Dew Point Humidity Pressure Visibility Wind Dir Wind Speed Gust Speed Precip Events Conditions
12:53 AM 64.9 °F - 54.0 °F 68% 29.67 in 10.0 mi ESE 5.8 mph - N/A   Clear
1:53 AM 68.0 °F - 54.0 °F 61% 29.67 in 10.0 mi SSE 9.2 mph - N/A   Clear
2:53 AM 68.0 °F - 54.0 °F 61% 29.67 in 10.0 mi SE 6.9 mph - N/A   Clear
3:53 AM 66.0 °F - 52.0 °F 60% 29.67 in 10.0 mi East 6.9 mph - N/A   Clear
4:53 AM 70.0 °F - 52.0 °F 53% 29.66 in 10.0 mi ESE 10.4 mph - N/A   Clear
5:53 AM 71.1 °F - 53.1 °F 53% 29.66 in 10.0 mi ESE 4.6 mph - N/A   Clear
6:53 AM 75.0 °F - 52.0 °F 44% 29.66 in 10.0 mi SE 11.5 mph - N/A   Clear
7:53 AM 80.1 °F - 52.0 °F 38% 29.66 in 10.0 mi SSE 11.5 mph - N/A   Clear
8:53 AM 84.0 °F - 51.1 °F 32% 29.65 in 10.0 mi SSE 12.7 mph - N/A   Clear
9:53 AM 88.0 °F - 51.1 °F 28% 29.64 in 10.0 mi SSE 11.5 mph 18.4 mph N/A   Clear
10:53 AM 91.0 °F - 50.0 °F 24% 29.63 in 10.0 mi South 16.1 mph - N/A   Clear
11:53 AM 93.9 °F - 50.0 °F 22% 29.61 in 10.0 mi ESE 17.3 mph 21.9 mph N/A   Clear
12:53 PM 97.0 °F - 48.0 °F 19% 29.58 in 10.0 mi SE 10.4 mph 25.3 mph N/A   Clear
1:53 PM 98.1 °F - 48.9 °F 19% 29.56 in 10.0 mi NW 12.7 mph - N/A   Partly Cloudy
2:53 PM 93.0 °F - 48.9 °F 22% 29.55 in 10.0 mi NW 15.0 mph - N/A   Partly Cloudy
3:20 PM 87.1 °F 86.1 °F 57.9 °F 37% 29.61 in 7.0 mi North 10.4 mph - 0.00 in Rain , Thunderstorm Light Thunderstorms and Rain
3:45 PM 82.9 °F 84.4 °F 64.0 °F 53% 29.61 in 10.0 mi NE 17.3 mph - 0.02 in Rain , Thunderstorm Light Rain
3:53 PM 86.0 °F 87.3 °F 64.0 °F 48% 29.55 in 10.0 mi NNE 16.1 mph - 0.02 in Thunderstorm Mostly Cloudy
4:09 PM 87.1 °F 87.8 °F 63.0 °F 44% 29.58 in 10.0 mi NE 16.1 mph - N/A   Partly Cloudy
4:53 PM 84.9 °F 86.1 °F 64.0 °F 49% 29.49 in 10.0 mi NE 17.3 mph - N/A   Clear
5:53 PM 82.9 °F 82.4 °F 57.0 °F 41% 29.49 in 10.0 mi East 15.0 mph - N/A   Partly Cloudy
6:04 PM 82.9 °F 82.4 °F 57.0 °F 41% 29.57 in 10.0 mi SE 15.0 mph - N/A Thunderstorm Scattered Clouds
6:08 PM 84.0 °F 83.0 °F 55.9 °F 38% 29.63 in 4.0 mi SW 49.5 mph 62.1 mph N/A Thunderstorm Unknown
6:11 PM 80.1 °F 80.2 °F 55.9 °F 43% 29.65 in 2.0 mi WSW 49.5 mph 70.2 mph N/A Thunderstorm Unknown
6:15 PM 73.9 °F - 57.9 °F 57% 29.67 in 1.5 mi WSW 44.9 mph 70.2 mph 0.00 in Rain , Thunderstorm Light Thunderstorms and Rain
6:23 PM 68.0 °F - 62.1 °F 81% 29.68 in 3.0 mi West 34.5 mph 52.9 mph 0.03 in Rain , Thunderstorm Heavy Thunderstorms and Rain
6:31 PM 66.9 °F - 62.1 °F 84% 29.66 in 9.0 mi WNW 34.5 mph 46.0 mph 0.04 in Rain , Thunderstorm Light Thunderstorms and Rain
6:44 PM 68.0 °F - 60.1 °F 76% 29.63 in 10.0 mi NW 25.3 mph 35.7 mph 0.04 in Rain , Thunderstorm Light Rain
6:53 PM 66.0 °F - 61.0 °F 84% 29.59 in 10.0 mi NNW 24.2 mph 33.4 mph 0.04 in Rain , Thunderstorm Light Rain
6:56 PM 66.0 °F - 61.0 °F 84% 29.63 in 10.0 mi North 20.7 mph - 0.00 in   Scattered Clouds
7:53 PM 64.9 °F - 60.1 °F 84% 29.64 in 10.0 mi South 10.4 mph - 0.00 in   Clear
8:53 PM 66.0 °F - 59.0 °F 78% 29.69 in 10.0 mi West 12.7 mph - N/A   Clear
9:53 PM 64.0 °F - 57.0 °F 78% 29.72 in 10.0 mi West 6.9 mph - N/A   Clear
10:53 PM 64.0 °F - 53.1 °F 67% 29.73 in 10.0 mi SW 10.4 mph - N/A   Overcast
11:53 PM 63.0 °F - 52.0 °F 67% 29.75 in 10.0 mi WSW 10.4 mph - N/A   Clear